Terug naar catalogus

STARLINK-31313

ActiefCommunicatieVLEO
NORAD 59088·PAYLOAD·🇺🇸 United States

Gelanceerd Feb 29, 2024 vanaf Cape Canaveral Space Force Station

Loading…

Volgende Passages (komende 24 uur)

TLE

VersSource: CelesTrak SupGP

Epoch: Sep 14, 2026, 21:40 UTC

1 59088C 24041Q   26257.90326389 -.00027609  00000+0 -10001-2 0  2579
2 59088  43.0014 322.0025 0001629 267.8442 347.5409 15.27590120    14

Volg STARLINK-31313 in realtime met AllMySat

Download on the App Store